{"data":{"norad_id":52448,"epoch":"2026-05-25T02:25:29.639136Z","epoch_age_seconds":69539,"freshness":"FRESH","line1":"1 52448U 22048F   26145.10103749  .00115442  00000+0  79001-3 0  9998","line2":"2 52448  97.5663 258.2158 0003143 180.6356 179.4904 15.74420028225941","mean_motion":15.74420028,"eccentricity":0.0003143,"inclination_deg":97.5663,"raan_deg":258.2158,"arg_perigee_deg":180.6356,"mean_anomaly_deg":179.4904,"bstar":0.00079001,"rev_number":22594,"period_min":91.462251139503,"perigee_km":344.16858079993,"apogee_km":348.39555062463,"semimajor_km":6724.4190657123,"source":"CELESTRAK","updated_at":"2026-05-25T13:37:57.739320Z"}}